Location: ???????
(60.4260°N, 46.9069°E)
Time: 04:58:59
(UTC+00:00)

Cosmos 1833 Rocket - Pass Details

Date: 30 March 2020
Orbit: 834 x 838 km, 71.0° (Epoch: 05 June)

Event Time Altitude Azimuth Distance (km) Brightness Sun altitude
Exits shadow 01:26:17 - 289° (WNW) 3,358 5.4 -7.5°
Reaches altitude 10° 01:28:59 10° 301° (WNW) 2,463 4.8 -7.2°
Maximum altitude 01:33:49 28° 360° (N) 1,523 4.3 -6.6°
Drops below altitude 10° 01:38:40 10° 59° (ENE) 2,461 6.8 -6.1°
Sets 01:41:28 0° 71° (ENE) 3,394 8.8 -5.7°
